Погода в Забайкальском

Россия / Забайкальский край     52°08′33″N   113°35′53″E
темп.,
°C
ветер,
м/с
пор.,
м/с
влажн.,
%
обл.,
%
осадки,
мм/ч
давл.,
гПа
погр.,
м
14 апреля, ср
ср1400:00−2з225533 0.0 101015
03:00−1з3969100 0.0 1008525
06:00−1зсз7136596 0.0 10071154
09:00+1сз8134928 0.0 10081375
12:00+5ссз6826100 0.0 10082760
15:00+6сз6823100 0.0 10073154
18:00+5сз6723100 0.0 10072486
21:00+1сз483580 0.0 1010464
15 апреля, чт
чт1500:00−2сз4951100 0.0 1012292
03:00−4зсз246299 0.0 101197
06:00−6зсз22730 0.0 101242
09:00−2сз465032 0.0 1010735
12:00+2сз3527100 0.0 10072734
15:00+4сз5619100 0.1 10063674
18:00+4ссз3620100 0.0 10072749
21:00−1с223461 0.0 100917
16 апреля, пт
пт1600:000сз4847100 0.0 1010299
03:00−2сз3552100 0.0 1012181
06:00−5сз235619 0.0 101654
09:00−1сз57471 0.0 1016848
12:00+4сз55255 0.0 10152329
15:00+6зсз56195 0.0 10132431
18:00+6з67245 0.0 10122050
21:00+2з37455 0.0 1014167
17 апреля, сб
сб1700:000з246335 0.0 1014129
03:00−1з12775 0.0 101422
06:00−3юз11858 0.0 101413
09:00+3зюз265834 0.0 1013516
12:00+11зсз58325 0.0 10081589
15:00+15з57195 0.0 10052279
18:00+15з47215 0.0 10032540
21:00+8юз11365 0.0 100410
18 апреля, вс
вс1800:00+5в11472 0.0 100410
03:00+3вюв11530 0.0 100310
06:00+1вюв01605 0.0 100310
09:00+7ююз11445 0.0 1002197
12:00+14зюз242896 0.0 9991078
15:00+17зсз451699 0.0 9982806
18:00+17сз451942 0.0 9982945
21:00+12сз511367 0.0 1002366